Air Quality Table

TIMESTAMP NO2 SO2 O3 PM10 PM2.5 TEMP HUM AIRPRES WS WD NO
2023-02-02 01:00 5.96 µg/m3 0.31 µg/m3 81.13 µg/m3 22.12 µg/m3 10.95 µg/m3 12.22 °C 69.89 % 1,018.78 mbar 1.7 m/s 282.67 Deg -0.09 µg/m3
2023-02-02 00:00 13.16 µg/m3 0.32 µg/m3 72.97 µg/m3 31.18 µg/m3 7.58 µg/m3 11.89 °C 69.41 % 1,019.22 mbar 1.69 m/s 288.55 Deg 0.29 µg/m3
2023-02-01 23:00 27.74 µg/m3 0.38 µg/m3 55.11 µg/m3 34.3 µg/m3 7.58 µg/m3 11.34 °C 69.9 % 1,019.24 mbar 1.56 m/s 297.53 Deg 1.43 µg/m3
2023-02-01 22:00 34.85 µg/m3 0.42 µg/m3 46.75 µg/m3 35.03 µg/m3 11.04 µg/m3 11.14 °C 67.14 % 1,019.19 mbar 1.43 m/s 294.85 Deg 1.72 µg/m3
2023-02-01 21:00 58.67 µg/m3 0.51 µg/m3 27.09 µg/m3 35.77 µg/m3 9.93 µg/m3 11.33 °C 65.42 % 1,019.38 mbar 1.26 m/s 297.15 Deg 3.99 µg/m3
2023-02-01 20:00 76.46 µg/m3 0.61 µg/m3 18.76 µg/m3 33.22 µg/m3 7.87 µg/m3 11.82 °C 62 % 1,019.55 mbar 0.87 m/s 285.73 Deg 14.25 µg/m3
2023-02-01 19:00 72.39 µg/m3 0.52 µg/m3 22.52 µg/m3 20.07 µg/m3 6.94 µg/m3 11.89 °C 64.24 % 1,019.44 mbar 1.01 m/s 301.82 Deg 7.74 µg/m3
2023-02-01 18:00 44.92 µg/m3 0.39 µg/m3 51.9 µg/m3 17.72 µg/m3 7.1 µg/m3 12.81 °C 61.09 % 1,018.97 mbar 1.29 m/s 288.47 Deg 2.83 µg/m3
2023-02-01 17:00 14.24 µg/m3 0.34 µg/m3 81.83 µg/m3 13.75 µg/m3 8.13 µg/m3 13.7 °C 57.53 % 1,018.60 mbar 1.84 m/s 238.63 Deg 0.82 µg/m3
2023-02-01 16:00 7.89 µg/m3 0.35 µg/m3 88.84 µg/m3 16.17 µg/m3 5.32 µg/m3 13.85 °C 55.4 % 1,018.60 mbar 2.18 m/s 213.15 Deg 0.78 µg/m3
2023-02-01 15:00 8.86 µg/m3 0.4 µg/m3 87.58 µg/m3 13.61 µg/m3 5.25 µg/m3 14.16 °C 54.28 % 1,018.56 mbar 2.25 m/s 191.13 Deg 0.91 µg/m3
2023-02-01 14:00 9.13 µg/m3 0.48 µg/m3 85.77 µg/m3 15.23 µg/m3 5.9 µg/m3 14.13 °C 53.25 % 1,018.61 mbar 2.29 m/s 175.23 Deg 1.13 µg/m3
2023-02-01 13:00 5.87 µg/m3 0.48 µg/m3 86.96 µg/m3 25.25 µg/m3 7.45 µg/m3 14.17 °C 50.48 % 1,019.14 mbar 2.06 m/s 156.32 Deg 0.56 µg/m3
2023-02-01 12:00 5.89 µg/m3 0.54 µg/m3 83.52 µg/m3 38.74 µg/m3 9.54 µg/m3 14.23 °C 51.11 % 1,019.76 mbar 1.81 m/s 188.12 Deg 0.61 µg/m3
2023-02-01 11:00 13.96 µg/m3 0.6 µg/m3 74.16 µg/m3 57.74 µg/m3 12.42 µg/m3 14.17 °C 52.4 % 1,020.06 mbar 1.12 m/s 218.72 Deg 2.32 µg/m3
2023-02-01 10:00 46.91 µg/m3 0.96 µg/m3 41.61 µg/m3 73.19 µg/m3 21.08 µg/m3 13.41 °C 58.33 % 1,019.88 mbar 0.97 m/s 257.12 Deg 26.78 µg/m3
2023-02-01 09:00 87.62 µg/m3 1.72 µg/m3 8.11 µg/m3 50.82 µg/m3 14.62 µg/m3 11.48 °C 65.58 % 1,019.43 mbar 1.04 m/s 313.08 Deg 95.65 µg/m3
2023-02-01 08:00 82.99 µg/m3 0.99 µg/m3 5.38 µg/m3 23.19 µg/m3 13.21 µg/m3 9.81 °C 68.32 % 1,019.01 mbar 1.57 m/s 312.93 Deg 52.64 µg/m3
2023-02-01 07:00 68.77 µg/m3 0.61 µg/m3 12.24 µg/m3 11.05 µg/m3 8.7 µg/m3 9.44 °C 72.47 % 1,018.47 mbar 2.03 m/s 302.25 Deg 23.2 µg/m3
2023-02-01 06:00 34.32 µg/m3 0.32 µg/m3 34.68 µg/m3 10.4 µg/m3 5.75 µg/m3 9.45 °C 75.82 % 1,018.00 mbar 1.81 m/s 305.82 Deg 4.5 µg/m3
2023-02-01 05:00 12.46 µg/m3 0.29 µg/m3 55.93 µg/m3 11.85 µg/m3 6.05 µg/m3 10.03 °C 70.07 % 1,017.61 mbar 1.61 m/s 306.23 Deg 0.11 µg/m3
2023-02-01 04:00 8.72 µg/m3 0.36 µg/m3 69.83 µg/m3 12.52 µg/m3 7.44 µg/m3 11.32 °C 60.38 % 1,017.23 mbar 1.25 m/s 171.78 Deg 0.36 µg/m3
2023-02-01 03:00 3.54 µg/m3 0.26 µg/m3 79.68 µg/m3 13.23 µg/m3 8.39 µg/m3 11.78 °C 56.52 % 1,017.19 mbar 1.55 m/s 14.58 Deg -0.14 µg/m3
2023-02-01 02:00 3.26 µg/m3 0.23 µg/m3 77.85 µg/m3 14.96 µg/m3 6.33 µg/m3 11.94 °C 61.93 % 1,017.02 mbar 1.94 m/s 16.88 Deg -0.13 µg/m3
2023-02-01 01:00 3.99 µg/m3 0.19 µg/m3 76.77 µg/m3 20.48 µg/m3 6.09 µg/m3 12.3 °C 65.01 % 1,016.74 mbar 2.2 m/s 14.25 Deg -0.12 µg/m3
2023-02-01 00:00 3.99 µg/m3 0.2 µg/m3 79.38 µg/m3 19.37 µg/m3 6.52 µg/m3 12.77 °C 61.21 % 1,016.50 mbar 3.48 m/s 9.68 Deg -0.06 µg/m3
2023-01-31 23:00 3.4 µg/m3 0.19 µg/m3 80.04 µg/m3 18.79 µg/m3 6.93 µg/m3 13.06 °C 65.88 % 1,016.06 mbar 3.94 m/s 93.27 Deg 0.09 µg/m3
2023-01-31 22:00 4.97 µg/m3 0.2 µg/m3 78.72 µg/m3 18.21 µg/m3 8.32 µg/m3 13.54 °C 67.81 % 1,015.55 mbar 4.41 m/s 351.53 Deg 0.16 µg/m3
2023-01-31 21:00 9.99 µg/m3 0.2 µg/m3 72.91 µg/m3 24.74 µg/m3 9.37 µg/m3 13.44 °C 69.74 % 1,015.11 mbar 4.02 m/s 339.2 Deg 0.24 µg/m3
2023-01-31 20:00 16.76 µg/m3 0.25 µg/m3 66.69 µg/m3 24.32 µg/m3 5.34 µg/m3 13.42 °C 70.42 % 1,014.61 mbar 3.73 m/s 338.05 Deg 1.02 µg/m3
2023-01-31 19:00 20.95 µg/m3 0.27 µg/m3 65.44 µg/m3 27.86 µg/m3 5.97 µg/m3 13.32 °C 67.88 % 1,014.39 mbar 3.39 m/s 330.95 Deg 2.2 µg/m3
2023-01-31 18:00 16.49 µg/m3 0.26 µg/m3 70.19 µg/m3 24.16 µg/m3 7.87 µg/m3 13.7 °C 64.98 % 1,013.87 mbar 4.2 m/s 339.23 Deg 1.27 µg/m3
2023-01-31 17:00 13.68 µg/m3 0.27 µg/m3 75.1 µg/m3 15.68 µg/m3 8.21 µg/m3 14.23 °C 63.52 % 1,013.17 mbar 5.05 m/s 342.23 Deg 1.7 µg/m3
2023-01-31 16:00 12.01 µg/m3 0.25 µg/m3 77.49 µg/m3 19.91 µg/m3 9.69 µg/m3 14.23 °C 64.02 % 1,012.87 mbar 4.97 m/s 337.17 Deg 3.26 µg/m3
2023-01-31 15:00 13.78 µg/m3 0.25 µg/m3 76.55 µg/m3 25.16 µg/m3 5.88 µg/m3 14.12 °C 63.3 % 1,012.93 mbar 4.21 m/s 330.2 Deg 2.97 µg/m3
2023-01-31 14:00 10.71 µg/m3 0.24 µg/m3 79.33 µg/m3 24.89 µg/m3 5.65 µg/m3 14.38 °C 61.89 % 1,013.10 mbar 4.46 m/s 328.25 Deg 2.01 µg/m3
2023-01-31 13:00 9.72 µg/m3 0.26 µg/m3 82.77 µg/m3 21.95 µg/m3 5.37 µg/m3 14.78 °C 57.7 % 1,013.27 mbar 4.89 m/s 328.83 Deg 2.14 µg/m3
2023-01-31 12:00 11.94 µg/m3 0.25 µg/m3 78.34 µg/m3 20.2 µg/m3 6.81 µg/m3 14.55 °C 58.77 % 1,013.89 mbar 4.99 m/s 333.23 Deg 2.44 µg/m3
2023-01-31 11:00 11.6 µg/m3 0.26 µg/m3 75.96 µg/m3 28.83 µg/m3 7.47 µg/m3 14.34 °C 62.81 % 1,014.28 mbar 4.85 m/s 338.08 Deg 2.6 µg/m3
2023-01-31 10:00 15.68 µg/m3 0.31 µg/m3 70.59 µg/m3 24.58 µg/m3 8.76 µg/m3 13.98 °C 65.28 % 1,014.06 mbar 4.22 m/s 336.23 Deg 3.27 µg/m3
2023-01-31 09:00 25.81 µg/m3 0.38 µg/m3 60.18 µg/m3 15.05 µg/m3 9.75 µg/m3 13.48 °C 64.05 % 1,013.75 mbar 3.35 m/s 325.18 Deg 5.4 µg/m3
2023-01-31 08:00 30.28 µg/m3 0.3 µg/m3 55.48 µg/m3 8.03 µg/m3 5.34 µg/m3 12.46 °C 70.61 % 1,013.72 mbar 2.73 m/s 329.8 Deg 4.43 µg/m3
2023-01-31 07:00 25.43 µg/m3 0.29 µg/m3 59.62 µg/m3 8.34 µg/m3 6.19 µg/m3 12.22 °C 71.83 % 1,013.38 mbar 2.78 m/s 323.48 Deg 2.92 µg/m3
2023-01-31 06:00 18.33 µg/m3 0.28 µg/m3 60.28 µg/m3 7.48 µg/m3 5.41 µg/m3 11.35 °C 77.79 % 1,013.42 mbar 1.95 m/s 315.15 Deg 1.27 µg/m3
2023-01-31 05:00 6.69 µg/m3 0.2 µg/m3 70.98 µg/m3 7.99 µg/m3 6.51 µg/m3 11.28 °C 80.37 % 1,013.55 mbar 1.7 m/s 316.78 Deg 0.19 µg/m3
2023-01-31 04:00 4.76 µg/m3 0.24 µg/m3 70.97 µg/m3 8.72 µg/m3 5.34 µg/m3 11.14 °C 79.7 % 1,013.81 mbar 1.95 m/s 316.65 Deg -0.03 µg/m3
2023-01-31 03:00 5.09 µg/m3 0.22 µg/m3 72.31 µg/m3 10.6 µg/m3 7.08 µg/m3 11.35 °C 74.71 % 1,014.22 mbar 1.7 m/s 315.53 Deg -0.09 µg/m3
2023-01-31 02:00 3.86 µg/m3 0.2 µg/m3 77.08 µg/m3 14.33 µg/m3 7.34 µg/m3 11.98 °C 71.12 % 1,014.56 mbar 2.33 m/s 323.92 Deg -0.13 µg/m3
2023-01-31 01:00 4.9 µg/m3 0.25 µg/m3 75.95 µg/m3 17.29 µg/m3 7.49 µg/m3 12.24 °C 69.8 % 1,014.79 mbar 3.21 m/s 334.77 Deg -0.12 µg/m3
2023-01-31 00:00 7.77 µg/m3 0.22 µg/m3 71.53 µg/m3 24.78 µg/m3 9.81 µg/m3 12.23 °C 69.86 % 1,014.85 mbar 2.78 m/s 337.7 Deg 0 µg/m3
2023-01-30 23:00 15.07 µg/m3 0.29 µg/m3 58.17 µg/m3 41.03 µg/m3 13.93 µg/m3 11.32 °C 75.55 % 1,014.75 mbar 1.93 m/s 314.85 Deg 0.64 µg/m3
2023-01-30 22:00 23.83 µg/m3 0.34 µg/m3 48.46 µg/m3 35.79 µg/m3 15.94 µg/m3 11.05 °C 79.9 % 1,014.56 mbar 1.84 m/s 299.22 Deg 1.09 µg/m3
2023-01-30 21:00 33.76 µg/m3 0.32 µg/m3 40.67 µg/m3 40.87 µg/m3 8.73 µg/m3 11.07 °C 81.52 % 1,014.65 mbar 1.78 m/s 292.15 Deg 1.94 µg/m3
2023-01-30 20:00 62.71 µg/m3 0.46 µg/m3 17.42 µg/m3 28.3 µg/m3 11.2 µg/m3 11.12 °C 80.78 % 1,014.55 mbar 1.55 m/s 297.85 Deg 9.32 µg/m3
2023-01-30 19:00 65.18 µg/m3 0.46 µg/m3 17.15 µg/m3 29.42 µg/m3 5.14 µg/m3 11.56 °C 77.14 % 1,014.40 mbar 1.4 m/s 297.1 Deg 10.76 µg/m3
2023-01-30 18:00 47.12 µg/m3 0.35 µg/m3 37.45 µg/m3 19.07 µg/m3 6.58 µg/m3 12.41 °C 71.5 % 1,014.06 mbar 1.63 m/s 305.62 Deg 4.72 µg/m3
2023-01-30 17:00 20.17 µg/m3 0.35 µg/m3 68.41 µg/m3 13.4 µg/m3 5.77 µg/m3 13.46 °C 64.57 % 1,013.90 mbar 2.73 m/s 338.5 Deg 2.9 µg/m3
2023-01-30 16:00 12.98 µg/m3 0.35 µg/m3 73.95 µg/m3 16.09 µg/m3 6.34 µg/m3 13.67 °C 63.18 % 1,013.55 mbar 3.33 m/s 265.87 Deg 2.62 µg/m3
2023-01-30 15:00 15.36 µg/m3 0.35 µg/m3 71.46 µg/m3 22.71 µg/m3 6.3 µg/m3 13.48 °C 66.58 % 1,013.37 mbar 3.33 m/s 352.3 Deg 2.32 µg/m3
2023-01-30 14:00 14.75 µg/m3 0.41 µg/m3 74.02 µg/m3 30.52 µg/m3 8.8 µg/m3 14.06 °C 66.66 % 1,013.42 mbar 2.33 m/s 97.27 Deg 2.98 µg/m3
2023-01-30 13:00 17.53 µg/m3 0.48 µg/m3 69.92 µg/m3 24.8 µg/m3 7.59 µg/m3 14.03 °C 63.44 % 1,013.95 mbar 1.71 m/s 178.75 Deg 3.56 µg/m3
2023-01-30 12:00 11 µg/m3 0.49 µg/m3 74.63 µg/m3 25.1 µg/m3 11.67 µg/m3 14.28 °C 61.01 % 1,014.48 mbar 1.9 m/s 13.82 Deg 2.62 µg/m3
2023-01-30 11:00 18.35 µg/m3 0.61 µg/m3 65.16 µg/m3 39.1 µg/m3 14.93 µg/m3 13.9 °C 63.04 % 1,014.78 mbar 1.92 m/s 266.05 Deg 5.74 µg/m3
2023-01-30 10:00 67.09 µg/m3 1.08 µg/m3 16.51 µg/m3 30.62 µg/m3 12.72 µg/m3 13.12 °C 72.94 % 1,014.58 mbar 1.09 m/s 327.28 Deg 54.98 µg/m3
2023-01-30 09:00 79.01 µg/m3 1.35 µg/m3 6.56 µg/m3 14.45 µg/m3 5.99 µg/m3 11.99 °C 77.29 % 1,014.08 mbar 1.13 m/s 306.67 Deg 90.67 µg/m3
2023-01-30 08:00 54.59 µg/m3 0.56 µg/m3 25.84 µg/m3 9.55 µg/m3 6.73 µg/m3 11.51 °C 74.28 % 1,013.60 mbar 1.2 m/s 165.1 Deg 32.87 µg/m3
2023-01-30 07:00 42.74 µg/m3 0.3 µg/m3 37.68 µg/m3 9.37 µg/m3 6.81 µg/m3 11.55 °C 74.15 % 1,013.06 mbar 1.71 m/s 23.17 Deg 11.41 µg/m3
2023-01-30 06:00 19.06 µg/m3 0.22 µg/m3 56.83 µg/m3 10.2 µg/m3 6.22 µg/m3 11.54 °C 74.4 % 1,012.66 mbar 1.84 m/s 20.9 Deg 2 µg/m3
2023-01-30 05:00 8.83 µg/m3 0.22 µg/m3 63.37 µg/m3 11.89 µg/m3 6.95 µg/m3 11.03 °C 81.69 % 1,012.57 mbar 1.64 m/s 103.83 Deg 0.16 µg/m3
2023-01-30 04:00 5.96 µg/m3 0.23 µg/m3 68.2 µg/m3 13.99 µg/m3 6.94 µg/m3 9.89 °C 87.13 % 1,012.77 mbar 1.9 m/s 314.5 Deg -0.04 µg/m3
2023-01-30 03:00 4.66 µg/m3 0.2 µg/m3 73.27 µg/m3 17.27 µg/m3 6.85 µg/m3 10.17 °C 81.7 % 1,013.15 mbar 2.36 m/s 326.77 Deg -0.15 µg/m3
2023-01-30 02:00 2.92 µg/m3 0.17 µg/m3 76.57 µg/m3 13.11 µg/m3 6.71 µg/m3 11.26 °C 83.23 % 1,012.94 mbar 3.74 m/s 266.82 Deg -0.11 µg/m3
2023-01-30 01:00 4.98 µg/m3 0.13 µg/m3 73.41 µg/m3 13.29 µg/m3 6.16 µg/m3 12.02 °C 79.59 % 1,012.63 mbar 4.04 m/s 36.27 Deg 0.23 µg/m3
2023-01-30 00:00 5.71 µg/m3 0.12 µg/m3 72.45 µg/m3 15.89 µg/m3 8.3 µg/m3 11.83 °C 80.61 % 1,012.82 mbar 3.12 m/s 21.13 Deg -0.01 µg/m3
2023-01-29 23:00 7.7 µg/m3 0.19 µg/m3 73.42 µg/m3 16.03 µg/m3 9.05 µg/m3 11.17 °C 87.03 % 1,012.84 mbar 2.94 m/s 30.98 Deg 2.95 µg/m3
2023-01-29 22:00 7.7 µg/m3 0.19 µg/m3 74.93 µg/m3 22.38 µg/m3 11.65 µg/m3 11.43 °C 85.89 % 1,012.79 mbar 2.04 m/s 39.43 Deg 2.66 µg/m3
2023-01-29 21:00 11.05 µg/m3 0.23 µg/m3 70.98 µg/m3 22.14 µg/m3 6.74 µg/m3 9.7 °C 97.25 % 1,012.38 mbar 3.27 m/s 181.53 Deg 1.39 µg/m3
2023-01-29 20:00 27.96 µg/m3 0.24 µg/m3 54.81 µg/m3 14.38 µg/m3 6.4 µg/m3 9.28 °C 99.03 % 1,012.22 mbar 2.72 m/s 324.25 Deg 2.25 µg/m3
2023-01-29 19:00 19.93 µg/m3 0.22 µg/m3 61.18 µg/m3 15.4 µg/m3 6.22 µg/m3 9.81 °C 98.2 % 1,012.02 mbar 1.49 m/s 168.62 Deg 2.61 µg/m3
2023-01-29 18:00 8.52 µg/m3 0.2 µg/m3 74.02 µg/m3 11.23 µg/m3 5.32 µg/m3 10.55 °C 86.39 % 1,011.67 mbar 3.6 m/s 31.57 Deg 0.64 µg/m3
2023-01-29 17:00 5.09 µg/m3 0.15 µg/m3 78.16 µg/m3 10.63 µg/m3 5.33 µg/m3 12.09 °C 72.71 % 1,010.90 mbar 3.81 m/s 36.57 Deg 0.45 µg/m3
2023-01-29 16:00 5.43 µg/m3 0.18 µg/m3 77.06 µg/m3 10.89 µg/m3 4.08 µg/m3 12.4 °C 76.83 % 1,010.68 mbar 4.22 m/s 30.8 Deg 0.68 µg/m3
2023-01-29 15:00 5.44 µg/m3 0.18 µg/m3 76.12 µg/m3 10.13 µg/m3 3.81 µg/m3 12.63 °C 75.21 % 1,010.48 mbar 4.48 m/s 32.25 Deg 0.76 µg/m3
2023-01-29 14:00 5.69 µg/m3 0.22 µg/m3 76.45 µg/m3 10.6 µg/m3 4.74 µg/m3 12.89 °C 73.58 % 1,010.62 mbar 3.92 m/s 27.9 Deg 0.93 µg/m3
2023-01-29 13:00 6.13 µg/m3 0.21 µg/m3 76.4 µg/m3 9.85 µg/m3 5.22 µg/m3 12.92 °C 71.57 % 1,011.22 mbar 3.6 m/s 28.33 Deg 1.03 µg/m3
2023-01-29 12:00 7.86 µg/m3 0.2 µg/m3 73.09 µg/m3 8.94 µg/m3 5.3 µg/m3 12.88 °C 70.68 % 1,011.79 mbar 3.25 m/s 27.6 Deg 1.57 µg/m3
2023-01-29 11:00 9.15 µg/m3 0.23 µg/m3 71.22 µg/m3 9.67 µg/m3 4.15 µg/m3 12.5 °C 72.17 % 1,011.91 mbar 3.63 m/s 32.7 Deg 1.69 µg/m3
2023-01-29 10:00 9.08 µg/m3 0.22 µg/m3 72.27 µg/m3 7.68 µg/m3 4.74 µg/m3 12.43 °C 72.15 % 1,011.33 mbar 3.42 m/s 34.17 Deg 1.61 µg/m3
2023-01-29 09:00 27.2 µg/m3 0.35 µg/m3 51.11 µg/m3 10.03 µg/m3 6.02 µg/m3 11.31 °C 75.81 % 1,010.78 mbar 2.01 m/s 176.07 Deg 6.39 µg/m3
2023-01-29 08:00 35.78 µg/m3 0.27 µg/m3 37.48 µg/m3 10.38 µg/m3 5.08 µg/m3 9.34 °C 86.79 % 1,010.13 mbar 1.37 m/s 331.15 Deg 5.01 µg/m3
2023-01-29 07:00 15.56 µg/m3 0.2 µg/m3 56.62 µg/m3 9.78 µg/m3 5.53 µg/m3 9.03 °C 88.84 % 1,009.83 mbar 1.88 m/s 311.92 Deg 0.7 µg/m3
2023-01-29 06:00 11.16 µg/m3 0.22 µg/m3 56.22 µg/m3 10.36 µg/m3 6.11 µg/m3 8.96 °C 90.54 % 1,009.55 mbar 1.87 m/s 306.55 Deg 0.27 µg/m3
2023-01-29 05:00 9.27 µg/m3 0.23 µg/m3 58.58 µg/m3 10.4 µg/m3 6.29 µg/m3 9.06 °C 89.62 % 1,009.24 mbar 1.97 m/s 303 Deg 0.34 µg/m3
2023-01-29 04:00 7.93 µg/m3 0.26 µg/m3 57.19 µg/m3 10.48 µg/m3 6.55 µg/m3 9.09 °C 90.93 % 1,009.16 mbar 1.82 m/s 292.73 Deg 0.11 µg/m3
2023-01-29 03:00 6.05 µg/m3 0.15 µg/m3 62.65 µg/m3 12.08 µg/m3 8.34 µg/m3 9.51 °C 89.33 % 1,009.03 mbar 1.66 m/s 289.7 Deg -0.07 µg/m3
2023-01-29 02:00 6.52 µg/m3 0.2 µg/m3 66.36 µg/m3 13.41 µg/m3 6.09 µg/m3 9.74 °C 86.2 % 1,009.02 mbar 1.75 m/s 286.52 Deg -0.05 µg/m3
2023-01-29 01:00 11.36 µg/m3 0.21 µg/m3 71.19 µg/m3 16.34 µg/m3 7.08 µg/m3 9.95 °C 75.64 % 1,008.68 mbar 1.98 m/s 293.5 Deg 0.22 µg/m3
2023-01-29 00:00 7.35 µg/m3 0.22 µg/m3 78.07 µg/m3 23.78 µg/m3 7.13 µg/m3 8.57 °C 91.2 % 1,009.26 mbar 2.49 m/s 322.6 Deg 0.29 µg/m3
2023-01-28 23:00 8.31 µg/m3 0.2 µg/m3 73.76 µg/m3 21.21 µg/m3 10.83 µg/m3 9.24 °C 90.65 % 1,008.91 mbar 2.34 m/s 320.67 Deg 0.21 µg/m3
2023-01-28 22:00 14.36 µg/m3 0.25 µg/m3 64.51 µg/m3 29.07 µg/m3 9.36 µg/m3 9.6 °C 89.07 % 1,008.38 mbar 1.95 m/s 291.53 Deg 0.66 µg/m3
2023-01-28 21:00 39.68 µg/m3 0.27 µg/m3 36.48 µg/m3 17.32 µg/m3 5.19 µg/m3 9.31 °C 90.09 % 1,007.89 mbar 1.62 m/s 255.1 Deg 2.22 µg/m3
2023-01-28 20:00 28.81 µg/m3 0.28 µg/m3 55.17 µg/m3 10.71 µg/m3 6.54 µg/m3 9.04 °C 89.73 % 1,007.57 mbar 1.68 m/s 297.02 Deg 4.9 µg/m3
2023-01-28 19:00 25.6 µg/m3 0.26 µg/m3 58.2 µg/m3 12.61 µg/m3 5.19 µg/m3 9.73 °C 81.82 % 1,007.20 mbar 2.61 m/s 297.75 Deg 2.82 µg/m3
2023-01-28 18:00 33.17 µg/m3 0.25 µg/m3 49.27 µg/m3 17.81 µg/m3 5.67 µg/m3 10.41 °C 79.81 % 1,006.46 mbar 1.45 m/s 307.37 Deg 2.27 µg/m3
2023-01-28 17:00 23.94 µg/m3 0.26 µg/m3 59.04 µg/m3 14.89 µg/m3 6.58 µg/m3 10.59 °C 82.41 % 1,006.12 mbar 1.52 m/s 292.62 Deg 3.39 µg/m3
2023-01-28 16:00 20.31 µg/m3 0.21 µg/m3 65.25 µg/m3 12.42 µg/m3 6.61 µg/m3 10.36 °C 79.33 % 1,005.64 mbar 2.37 m/s 283.3 Deg 1.24 µg/m3
2023-01-28 15:00 21.84 µg/m3 0.23 µg/m3 61.87 µg/m3 12.69 µg/m3 6.24 µg/m3 10.46 °C 78.55 % 1,005.15 mbar 1.73 m/s 272.1 Deg 1.97 µg/m3
2023-01-28 14:00 17.54 µg/m3 0.26 µg/m3 68.4 µg/m3 16.54 µg/m3 7.62 µg/m3 12.01 °C 70.21 % 1,004.97 mbar 2.25 m/s 300.72 Deg 3.05 µg/m3
2023-01-28 13:00 21.3 µg/m3 0.35 µg/m3 66.36 µg/m3 19.73 µg/m3 8.63 µg/m3 12.36 °C 70.94 % 1,005.32 mbar 1.65 m/s 280.6 Deg 4.73 µg/m3
2023-01-28 12:00 20.89 µg/m3 0.35 µg/m3 65.99 µg/m3 10.74 µg/m3 11.06 µg/m3 12.08 °C 71.79 % 1,005.78 mbar 2.06 m/s 341.98 Deg 4.23 µg/m3
2023-01-28 11:00 50.55 µg/m3 0.58 µg/m3 37.98 µg/m3 8.18 µg/m3 5.74 µg/m3 11.23 °C 80.9 % 1,006.20 mbar 1.24 m/s 307.45 Deg 22.83 µg/m3
2023-01-28 10:00 68.1 µg/m3 0.56 µg/m3 18.66 µg/m3 7.16 µg/m3 5.85 µg/m3 9.3 °C 86.71 % 1,006.05 mbar 0.84 m/s 309.78 Deg 24.08 µg/m3
2023-01-28 09:00 38.52 µg/m3 0.33 µg/m3 46.82 µg/m3 8.97 µg/m3 6.07 µg/m3 9.66 °C 82.11 % 1,005.40 mbar 2.15 m/s 324.75 Deg 5.97 µg/m3
2023-01-28 08:00 71.09 µg/m3 0.52 µg/m3 16.61 µg/m3 10.61 µg/m3 5.29 µg/m3 10.09 °C 76.93 % 1,004.90 mbar 0.92 m/s 300.21 Deg 26.11 µg/m3
2023-01-28 07:00 46.88 µg/m3 0.23 µg/m3 34.96 µg/m3 11.16 µg/m3 4.87 µg/m3 9.63 °C 79.61 % 1,004.69 mbar 1.36 m/s 293.62 Deg 6.17 µg/m3
2023-01-28 06:00 15.73 µg/m3 0.14 µg/m3 66.74 µg/m3 10.89 µg/m3 6.11 µg/m3 9.86 °C 78.94 % 1,004.55 mbar 1.41 m/s 287.83 Deg 0.65 µg/m3
2023-01-28 05:00 3.84 µg/m3 0.18 µg/m3 78.67 µg/m3 10.15 µg/m3 6.17 µg/m3 9.94 °C 76.41 % 1,004.35 mbar 1.78 m/s 284.57 Deg -0.13 µg/m3
2023-01-28 04:00 3.76 µg/m3 0.23 µg/m3 76.41 µg/m3 9.98 µg/m3 7.2 µg/m3 9.33 °C 82.32 % 1,004.47 mbar 1.87 m/s 285 Deg -0.05 µg/m3
2023-01-28 03:00 4.78 µg/m3 0.15 µg/m3 74.1 µg/m3 8.24 µg/m3 7.59 µg/m3 8.99 °C 85.25 % 1,004.54 mbar 1.65 m/s 309.22 Deg -0.08 µg/m3
2023-01-28 02:00 5.83 µg/m3 0.18 µg/m3 71.96 µg/m3 10.21 µg/m3 9.92 µg/m3 9.97 °C 86.6 % 1,004.22 mbar 2.22 m/s 295.38 Deg -0.08 µg/m3
2023-01-28 01:00 15.65 µg/m3 0.18 µg/m3 55.51 µg/m3 12.48 µg/m3 9.7 µg/m3 10.1 °C 85.67 % 1,004.27 mbar 1.49 m/s 304.3 Deg 0.34 µg/m3
2023-01-28 00:00 22.06 µg/m3 0.21 µg/m3 46.08 µg/m3 17.2 µg/m3 6.66 µg/m3 10.09 °C 88.07 % 1,004.33 mbar 1.41 m/s 300.73 Deg 0.77 µg/m3
2023-01-27 23:00 20.28 µg/m3 0.2 µg/m3 52.66 µg/m3 24.93 µg/m3 8.8 µg/m3 10.19 °C 86.16 % 1,004.38 mbar 1.56 m/s 293.57 Deg 1.01 µg/m3
2023-01-27 22:00 17.42 µg/m3 0.2 µg/m3 62.23 µg/m3 39.18 µg/m3 12.85 µg/m3 10.23 °C 83.39 % 1,004.08 mbar 1.57 m/s 310.2 Deg 0.72 µg/m3
2023-01-27 21:00 29.56 µg/m3 0.25 µg/m3 44.29 µg/m3 37.96 µg/m3 11.97 µg/m3 10.81 °C 89.88 % 1,004.08 mbar 1.57 m/s 297.58 Deg 1.72 µg/m3
2023-01-27 20:00 48.29 µg/m3 0.25 µg/m3 29.45 µg/m3 21.13 µg/m3 8.06 µg/m3 11.31 °C 83.2 % 1,003.41 mbar 1.29 m/s 304.21 Deg 5.17 µg/m3
2023-01-27 19:00 44.2 µg/m3 0.32 µg/m3 34.42 µg/m3 19.53 µg/m3 6.91 µg/m3 11.73 °C 80.08 % 1,002.67 mbar 1.28 m/s 316.62 Deg 5.97 µg/m3
2023-01-27 18:00 38.69 µg/m3 0.27 µg/m3 45.82 µg/m3 27.49 µg/m3 8 µg/m3 11.86 °C 80.27 % 1,001.86 mbar 1.75 m/s 315.38 Deg 4.4 µg/m3
2023-01-27 17:00 25.46 µg/m3 0.23 µg/m3 60.08 µg/m3 14.23 µg/m3 6.41 µg/m3 12.67 °C 74.47 % 1,001.38 mbar 2.85 m/s 311.22 Deg 3.85 µg/m3
2023-01-27 16:00 24.74 µg/m3 0.23 µg/m3 62.15 µg/m3 12.23 µg/m3 5.34 µg/m3 12.33 °C 79.51 % 1,000.68 mbar 2.65 m/s 326.55 Deg 3.75 µg/m3
2023-01-27 15:00 16.49 µg/m3 0.2 µg/m3 70.02 µg/m3 14.54 µg/m3 6.42 µg/m3 13.42 °C 66.44 % 999.88 mbar 3.58 m/s 329 Deg 3.5 µg/m3
2023-01-27 14:00 11.46 µg/m3 0.19 µg/m3 77.43 µg/m3 17.45 µg/m3 4.55 µg/m3 13.36 °C 68.04 % 999.45 mbar 3.64 m/s 330.5 Deg 2.61 µg/m3
2023-01-27 13:00 15.99 µg/m3 0.21 µg/m3 70.64 µg/m3 18.72 µg/m3 4.81 µg/m3 12.89 °C 74.23 % 999.28 mbar 3.84 m/s 326.68 Deg 3.37 µg/m3
2023-01-27 12:00 20.2 µg/m3 0.24 µg/m3 65.98 µg/m3 20.25 µg/m3 6.73 µg/m3 12.56 °C 75.82 % 999.69 mbar 2.88 m/s 325.43 Deg 4.12 µg/m3
2023-01-27 11:00 25.37 µg/m3 0.32 µg/m3 60.16 µg/m3 19.71 µg/m3 6.62 µg/m3 12.22 °C 79.7 % 999.53 mbar 2.8 m/s 332.37 Deg 8.87 µg/m3
2023-01-27 10:00 36.15 µg/m3 0.34 µg/m3 49.71 µg/m3 14.82 µg/m3 5.79 µg/m3 11.64 °C 84.55 % 998.86 mbar 2.34 m/s 325.75 Deg 6.31 µg/m3
2023-01-27 09:00 35.4 µg/m3 0.27 µg/m3 52.68 µg/m3 8.52 µg/m3 5.47 µg/m3 11.52 °C 85.77 % 998.00 mbar 2.42 m/s 324.62 Deg 6.14 µg/m3
2023-01-27 08:00 33.7 µg/m3 0.26 µg/m3 51.85 µg/m3 6.86 µg/m3 6.39 µg/m3 10.7 °C 88.47 % 997.35 mbar 2.36 m/s 315.17 Deg 4.88 µg/m3
2023-01-27 07:00 28.95 µg/m3 0.2 µg/m3 55.82 µg/m3 8.14 µg/m3 6.17 µg/m3 9.75 °C 93.69 % 997.22 mbar 2.37 m/s 325.73 Deg 4.31 µg/m3
2023-01-27 06:00 41.57 µg/m3 0.22 µg/m3 35.31 µg/m3 7.82 µg/m3 5.22 µg/m3 9.14 °C 95.56 % 997.17 mbar 0.9 m/s 291.25 Deg 2.99 µg/m3
2023-01-27 05:00 9.52 µg/m3 0.15 µg/m3 71.27 µg/m3 5.4 µg/m3 4.59 µg/m3 9.74 °C 92.94 % 997.08 mbar 2.94 m/s 318.02 Deg 0.12 µg/m3
2023-01-27 04:00 2.25 µg/m3 0.22 µg/m3 79.89 µg/m3 6.13 µg/m3 5.21 µg/m3 10.95 °C 83.28 % 997.57 mbar 3.69 m/s 274.9 Deg -0.14 µg/m3
2023-01-27 03:00 2.46 µg/m3 0.19 µg/m3 79.89 µg/m3 9.5 µg/m3 5.07 µg/m3 10.53 °C 84.26 % 998.14 mbar 3.59 m/s 275.2 Deg -0.15 µg/m3
2023-01-27 02:00 4.07 µg/m3 0.2 µg/m3 79.61 µg/m3 11.65 µg/m3 5.1 µg/m3 11.03 °C 71.58 % 998.77 mbar 2.59 m/s 269.82 Deg -0.11 µg/m3
2023-01-27 01:00 17.42 µg/m3 0.21 µg/m3 58.66 µg/m3 12.59 µg/m3 4.76 µg/m3 9.83 °C 79.45 % 999.33 mbar 1.05 m/s 300.15 Deg 0.19 µg/m3
2023-01-27 00:00 14.24 µg/m3 0.24 µg/m3 63.25 µg/m3 15.6 µg/m3 4.13 µg/m3 9.68 °C 78.85 % 999.90 mbar 1.35 m/s 275.48 Deg 0.42 µg/m3
2023-01-26 23:00 23.29 µg/m3 0.27 µg/m3 49.16 µg/m3 19.38 µg/m3 5.38 µg/m3 8.96 °C 83.3 % 1,000.59 mbar 1.56 m/s 292.83 Deg 0.71 µg/m3
2023-01-26 22:00 35.08 µg/m3 0.33 µg/m3 41.76 µg/m3 21.48 µg/m3 6.8 µg/m3 9.07 °C 85.22 % 1,000.91 mbar 1.22 m/s 287.7 Deg 2.99 µg/m3
2023-01-26 21:00 59.89 µg/m3 0.39 µg/m3 18.53 µg/m3 15.19 µg/m3 4.9 µg/m3 8.71 °C 93.06 % 1,001.13 mbar 1.08 m/s 284.35 Deg 5.65 µg/m3
2023-01-26 20:00 56.57 µg/m3 0.32 µg/m3 29.2 µg/m3 15.74 µg/m3 6.32 µg/m3 8.86 °C 90.34 % 1,000.81 mbar 1 m/s 320.42 Deg 3.79 µg/m3
2023-01-26 19:00 30.24 µg/m3 0.25 µg/m3 57.45 µg/m3 24.83 µg/m3 5.36 µg/m3 8.57 °C 91.92 % 1,000.81 mbar 1.5 m/s 256.53 Deg 1.82 µg/m3
2023-01-26 18:00 22.79 µg/m3 0.22 µg/m3 65.28 µg/m3 13.82 µg/m3 6.48 µg/m3 9.12 °C 81.56 % 1,000.41 mbar 3.08 m/s 318.92 Deg 2.32 µg/m3
2023-01-26 17:00 19.34 µg/m3 0.24 µg/m3 67.75 µg/m3 11.6 µg/m3 5.93 µg/m3 11.45 °C 63.98 % 999.85 mbar 3.21 m/s 285.03 Deg 1.6 µg/m3
2023-01-26 16:00 14.56 µg/m3 0.2 µg/m3 74.74 µg/m3 17.27 µg/m3 5.99 µg/m3 12.78 °C 56.14 % 999.89 mbar 3.53 m/s 280.83 Deg 1.68 µg/m3
2023-01-26 15:00 12.55 µg/m3 0.24 µg/m3 76.66 µg/m3 19.03 µg/m3 6.51 µg/m3 13.06 °C 56.76 % 999.94 mbar 4.07 m/s 272.68 Deg 1.63 µg/m3
2023-01-26 14:00 8.82 µg/m3 0.28 µg/m3 79.13 µg/m3 17.98 µg/m3 6.53 µg/m3 13.64 °C 53.86 % 1,000.30 mbar 4.49 m/s 258.82 Deg 1.74 µg/m3
2023-01-26 13:00 7.82 µg/m3 0.28 µg/m3 79.84 µg/m3 24.71 µg/m3 7.85 µg/m3 13.76 °C 53.76 % 1,001.08 mbar 4.84 m/s 256.67 Deg 1.5 µg/m3
2023-01-26 12:00 8.29 µg/m3 0.31 µg/m3 77.75 µg/m3 39.1 µg/m3 12.81 µg/m3 13.77 °C 52.34 % 1,002.06 mbar 3.91 m/s 253.12 Deg 1.61 µg/m3
2023-01-26 11:00 10.93 µg/m3 0.32 µg/m3 71.57 µg/m3 55.02 µg/m3 21.79 µg/m3 13.39 °C 54.09 % 1,002.77 mbar 3.75 m/s 262.08 Deg 1.91 µg/m3
2023-01-26 10:00 75.18 µg/m3 1.27 µg/m3 19.38 µg/m3 44.68 µg/m3 4.91 µg/m3 11.81 °C 70.75 % 1,002.93 mbar 1.12 m/s 297.52 Deg 65.04 µg/m3
2023-01-26 09:00 89.16 µg/m3 1.27 µg/m3 6.83 µg/m3 36.84 µg/m3 5.28 µg/m3 10.35 °C 77.66 % 1,002.94 mbar 1.07 m/s 332.9 Deg 79.82 µg/m3
2023-01-26 08:00 75.02 µg/m3 0.65 µg/m3 9.94 µg/m3 28.03 µg/m3 5.69 µg/m3 9.42 °C 82.9 % 1,003.11 mbar 1.08 m/s 323.25 Deg 32.92 µg/m3
2023-01-26 07:00 79 µg/m3 0.71 µg/m3 4.81 µg/m3 14.14 µg/m3 5.93 µg/m3 8.93 °C 88.05 % 1,003.33 mbar 0.95 m/s 317.85 Deg 39.04 µg/m3
2023-01-26 06:00 34.76 µg/m3 0.26 µg/m3 41.18 µg/m3 9.86 µg/m3 6.08 µg/m3 9.31 °C 87.04 % 1,003.58 mbar 0.93 m/s 324.05 Deg 3.86 µg/m3
2023-01-26 05:00 11.33 µg/m3 0.2 µg/m3 67.76 µg/m3 8.14 µg/m3 5.52 µg/m3 9.93 °C 83.3 % 1,003.97 mbar 1.08 m/s 325.62 Deg 0.32 µg/m3
2023-01-26 04:00 4 µg/m3 0.18 µg/m3 80.7 µg/m3 10.03 µg/m3 5.04 µg/m3 11.12 °C 66.95 % 1,004.25 mbar 2.03 m/s 309.07 Deg -0.08 µg/m3
2023-01-26 03:00 2.23 µg/m3 0.17 µg/m3 85.11 µg/m3 10.27 µg/m3 5.89 µg/m3 11.77 °C 59.09 % 1,004.47 mbar 3.17 m/s 271.72 Deg -0.15 µg/m3

It is to be noted that the data is provisional and subject to quality assurance procedures. For validated data kindly refer your request to contact.air@era.org.mt